Location: Madonna della Comuna
(45.0833°N, 11.1833°E)
Time: 11:49:51
(UTC+00:00)

Daily predictions for brighter satellites

Satellite Brightness Start Highest point End
(mag) Time Altitude Azimuth Time Altitude Azimuth Time Altitude Azimuth
Cosmos 2082 Rocket 2.5 18:50:56 10° S 18:56:18 45° ESE 19:01:40 10° NE
CENTAUR R/B 3.6 18:52:19 10° SSE 18:56:19 19° ESE 19:00:43 10° ENE
COSMOS 2406 3.5 18:50:44 10° SSW 18:56:29 79° WNW 19:02:15 10° NNE
Cosmos 407 Rocket 3.6 18:51:47 10° S 18:57:01 63° ESE 19:02:14 10° NNE
Cosmos 2369 3.8 18:52:14 10° NNW 18:57:59 70° ENE 19:03:41 10° SSE
Cosmos 1190 Rocket 4.2 18:54:04 10° S 18:59:10 53° ESE 19:04:21 10° NNE
IRIDIUM 106 4.4 18:55:38 10° SSE 19:00:46 63° E 19:05:57 10° N
Lacrosse 5 3.1 18:56:22 10° NW 19:00:57 33° NNE 19:05:30 10° E
Cosmos 1633 Rocket 3.8 19:00:35 10° SSE 19:04:30 32° E 19:08:27 10° NNE
Cosmos 2278 4.0 18:59:28 10° NNW 19:05:06 55° ENE 19:10:39 10° SE
Cosmos 2322 Rocket 4.1 19:02:10 10° N 19:05:46 17° NE 19:09:21 10° E
Cosmos 1140 Rocket 3.5 19:03:36 10° S 19:08:45 62° ESE 19:13:57 10° NNE
MOS 1 Rocket 4.2 19:03:32 10° N 19:08:56 65° WNW 19:14:07 10° SSW
USA 276 3.7 19:07:52 10° WNW 19:10:46 31° N 19:13:40 10° ENE
Cosmos 1023 Rocket 4.5 19:05:52 10° S 19:11:04 67° ESE 19:16:19 10° NNE
MetOp-A 4.1 19:05:56 10° SSE 19:11:17 82° ENE 19:16:40 10° NNW
Cosmos 1818 4.1 19:06:52 10° NW 19:12:14 58° WSW 19:17:32 10° SSE
X-37B 0.5 19:11:46 10° W 19:14:56 90° N 19:18:07 10° E
Cosmos 2360 Rocket 4.3 19:13:46 10° NNE 19:16:01 12° NE 19:18:15 10° ENE
ATLAS 5 CENTAUR R/B 3.8 19:11:59 10° NW 19:17:19 36° WSW 19:23:20 10° S
Cosmos 921 Rocket 4.1 19:14:15 10° N 19:17:55 28° ENE 19:20:56 13° ESE
FALCON 9 DEB 4.0 19:15:07 10° WSW 19:18:33 54° NNW 19:22:00 10° NE
Cosmos 1707 Rocket 3.5 19:15:52 10° N 19:20:12 71° E 19:24:31 10° SSE
USA 186 3.5 19:20:15 10° SSW 19:22:04 21° W 19:23:52 10° NW
OBJECT-B 0.7 19:20:41 10° SSE 19:23:58 81° ENE 19:27:17 10° N
Genesis I 3.1 19:20:26 10° NW 19:24:20 85° NE 19:27:36 14° SE
Cosmos 1980 Rocket 2.2 19:20:26 10° NNW 19:26:07 71° ENE 19:31:16 12° SE
CZ-2C R/B 3.7 19:24:57 10° NNE 19:29:31 66° ESE 19:33:59 10° S
Intercosmos 25 3.3 19:26:55 10° NNW 19:30:44 70° W 19:33:53 10° S
Shenzhou-11 Module 4.1 19:31:16 10° SW 19:31:37 10° SSW 19:31:58 10° SSW
Cosmos 1470 Rocket 4.2 19:28:13 10° SSE 19:32:14 35° E 19:36:13 10° NNE
Cosmos 1833 Rocket 3.5 19:30:35 10° SW 19:36:05 56° WNW 19:41:38 10° NNE
NOSS 3-2 (A) 3.3 19:30:41 10° SSW 19:36:13 63° ESE 19:42:33 10° NE
SJ-6B 4.2 19:33:02 10° SSW 19:36:49 38° W 19:40:33 10° NNW
Cosmos 1184 Rocket 3.0 19:33:39 10° S 19:36:50 50° E 19:40:03 10° NNE
Sich 1 3.7 19:34:10 10° SSW 19:38:33 60° W 19:42:58 10° N
Meteor 1-4 Rocket 2.3 19:35:08 10° N 19:38:36 82° E 19:41:27 14° SSE
Cosmos 1697 Rocket 3.4 19:33:55 10° NW 19:39:20 51° WSW 19:44:45 10° S
USA 267 3.5 19:34:19 10° ENE 19:40:30 43° SE 19:46:38 10° SSW
H-2A R/B 4.4 19:37:20 10° SW 19:41:10 21° W 19:44:55 10° NW
SPOT 5 4.4 19:40:40 13° E 19:42:31 17° ENE 19:45:20 10° NNE
Cosmos 405 Rocket 3.5 19:42:21 21° SE 19:43:57 30° E 19:47:16 10° NNE
SL-27 R/B 4.5 19:46:33 13° ENE 19:46:33 13° ENE 19:47:21 10° ENE
NOSS 3-2 (C) 3.6 19:40:16 10° S 19:45:36 45° ESE 19:51:37 10° NE
Cosmos 1862 Rocket 3.6 19:43:12 10° N 19:47:39 68° E 19:50:56 18° SSE
SPOT 1/Viking Rocket 4.3 19:45:04 19° ESE 19:48:14 37° ENE 19:53:02 10° N
Cosmos 1437 Rocket 4.1 19:45:55 10° NNE 19:48:56 22° ENE 19:49:57 20° E
Cosmos 1934 Rocket 4.0 19:43:21 10° S 19:49:44 84° E 19:56:07 10° N
Landsat 7 4.3 19:48:45 21° SE 19:51:37 45° ENE 19:56:09 10° N
Resurs 01 Rocket 1.6 19:47:48 13° SSE 19:51:40 86° WSW 19:56:08 10° NNW
USA 32 4.1 19:47:42 11° SSE 19:52:40 59° E 19:57:49 10° NNE
NOSS 2 (A) 3.8 19:53:26 10° NW 19:55:59 89° SSW 19:56:24 55° SE
Cosmos 676 Rocket 4.1 19:52:29 10° SSW 19:57:49 81° WNW 20:03:12 10° NNE
ERS-1 Rocket 4.0 19:56:12 21° ESE 19:58:31 31° ENE 20:02:54 10° N
GP-B 3.0 19:57:28 10° N 20:01:55 69° E 20:04:53 20° S
Okean 1 3.7 20:00:48 10° N 20:04:44 47° ENE 20:06:08 32° SE
Meteor 1-19 Rocket 4.5 20:00:20 10° N 20:05:37 49° ENE 20:08:21 27° SE
SPOT 3 Rocket 4.4 20:02:32 10° S 20:07:32 47° W 20:12:33 10° NNW
CARTOSAT-1 4.5 20:06:55 27° ESE 20:08:16 33° ENE 20:12:08 10° N
BREEZE-M DEB (TANK) 3.1 20:09:00 10° WNW 20:11:17 30° N 20:11:50 25° NE
Cosmos 1867 4.5 20:06:13 10° SW 20:11:32 52° NW 20:16:52 10° NNE
Cosmos 1933 Rocket 3.5 20:10:13 23° S 20:12:53 67° E 20:17:19 10° NNE
Cosmos 468 Rocket 4.0 20:07:35 10° NNW 20:12:54 68° ENE 20:15:29 30° SE
USA 234 3.8 20:10:46 16° E 20:15:48 51° NNE 20:22:05 10° NW
ATLAS 3B R/B 3.3 20:14:38 27° SE 20:16:01 29° ESE 20:21:32 10° NE
SL-4 R/B 3.4 20:12:53 10° WNW 20:16:30 33° NNW 20:19:54 10° NE
IGS 5A 3.3 20:15:47 33° SSE 20:17:35 82° ENE 20:21:45 10° N
Meteor 2-4 Rocket 4.2 20:17:05 10° N 20:22:25 42° ENE 20:24:18 31° ESE
Cosmos 1869 Rocket 4.2 20:23:53 34° E 20:24:13 35° E 20:28:16 10° NNE
Iridium 4 Rocket 4.4 20:25:27 23° ENE 20:25:27 23° ENE 20:28:34 10° NNE
MetOp-B 4.4 20:22:39 21° S 20:26:16 67° WSW 20:31:38 10° NNW
Meteor 1-14 Rocket 4.3 20:23:18 23° S 20:26:59 66° E 20:32:54 10° NNE
Spot 2 Rocket 3.5 20:25:34 29° S 20:28:17 83° WSW 20:33:25 10° NNW
SL-16 R/B 2.2 20:26:18 10° NNW 20:31:59 71° ENE 20:34:14 37° SE
Cosmos 2219 Rocket 4.3 20:28:35 10° N 20:32:06 16° NE 20:35:04 11° ENE
Cosmos 1741 Rocket 3.9 20:27:52 15° SSW 20:32:11 77° ESE 20:37:28 10° NNE
Okean 1-7 2.9 20:30:49 10° N 20:35:08 68° E 20:36:00 52° SE
USA 238 DEB 4.1 20:28:55 10° SW 20:35:29 63° NW 20:42:23 10° NE
USA 238 4.1 20:29:02 10° SW 20:35:36 63° NW 20:42:29 10° NE
Cosmos 1703 Rocket 3.4 20:31:52 10° N 20:36:14 79° E 20:37:16 51° SSE
ATLAS 5 CENTAUR R/B 3.5 20:35:30 10° NNW 20:37:59 26° NE 20:39:34 22° E
Cosmos 2082 Rocket 4.0 20:35:29 10° WSW 20:40:32 32° NW 20:45:36 10° N
Terra 2.3 20:40:06 40° ESE 20:41:02 45° ENE 20:45:35 10° N
Cosmos 1570 Rocket 4.2 20:35:56 10° NNW 20:41:12 57° ENE 20:42:42 42° ESE
Meteor 1-18 Rocket 4.2 20:35:47 10° NNW 20:41:22 77° W 20:44:01 32° S
Lacrosse 5 1.8 20:39:14 10° NW 20:44:18 73° SW 20:45:36 49° SSE
Cosmos 1238 Rocket 3.8 20:44:11 25° WSW 20:45:08 31° WNW 20:47:50 10° NNW
CENTAUR R/B 2.6 20:39:58 10° SW 20:45:53 80° NW 20:52:59 10° NE
USA 276 2.7 20:44:19 10° WNW 20:47:07 55° NNW 20:47:07 55° NNW
Cosmos 2100 Rocket 4.0 20:45:27 38° SSE 20:47:42 62° E 20:53:46 10° NNE
Cosmos 2208 Rocket 4.2 20:44:47 10° NNW 20:49:58 56° ENE 20:51:06 46° ESE
Cosmos 1763 Rocket 3.7 20:45:20 10° NNW 20:50:38 68° WSW 20:52:28 40° S
Cosmos 2322 Rocket 2.1 20:45:01 10° NNW 20:50:46 81° ENE 20:52:29 47° SE
X-37B 1.9 20:48:24 10° W 20:50:24 34° W 20:50:24 34° W
Cosmos 2173 Rocket 3.9 20:52:59 42° SSE 20:55:04 66° E 21:01:08 10° NNE
Cosmos 2084 Rocket 3.8 20:53:49 10° SW 20:57:58 62° NW 21:02:14 10° NNE
Cosmos 2237 4.4 20:52:57 10° NNW 20:58:36 57° ENE 20:59:59 45° ESE
Cosmos 1500 3.3 20:59:53 64° NNE 20:59:53 64° NNE 21:03:08 10° N
Cosmos 2360 Rocket 2.5 20:55:48 10° NNW 21:01:22 55° ENE 21:02:39 45° ESE
Cosmos 1725 Rocket 4.4 21:04:43 42° ESE 21:05:37 45° E 21:11:35 10° NNE
Cosmos 44 3.3 21:00:52 10° NW 21:05:50 83° WSW 21:06:35 65° SSE
Cosmos 1980 Rocket 4.3 21:05:45 10° WNW 21:09:28 18° W 21:13:03 10° SW
Cosmos 1666 4.1 21:11:57 28° NE 21:11:57 28° NE 21:14:03 10° NNE
Cosmos 1459 Rocket 3.9 21:08:09 42° S 21:10:28 85° E 21:16:53 10° N
SAR-Lupe-2 4.0 21:06:58 10° N 21:10:12 60° NW 21:10:12 60° NW
Cosmos 2016 Rocket 4.0 21:13:22 52° SE 21:14:43 64° E 21:21:01 10° NNE
Cosmos 1242 Rocket 4.3 21:14:34 10° N 21:16:36 25° NE 21:16:36 25° NE
SL-27 R/B 4.0 21:20:03 30° WNW 21:20:11 30° WNW 21:23:11 10° N
SPOT 5 3.0 21:19:54 52° WSW 21:20:12 53° W 21:24:30 10° NNW
COSMOS 2428 4.0 21:15:27 10° N 21:20:25 29° NE 21:21:52 26° ENE
Cosmos 2221 Rocket 3.7 21:17:21 10° N 21:21:32 68° NE 21:21:32 68° NE
Cosmos 2346 Rocket 4.3 21:16:06 10° N 21:22:10 72° E 21:23:12 60° SE
USA 267 3.6 21:17:14 10° NE 21:23:42 66° NNW 21:30:10 10° WSW
Cosmos 967 Rocket 4.4 21:18:13 10° NW 21:24:36 80° WSW 21:25:52 59° SSE
Cosmos 1437 Rocket 4.4 21:21:58 10° NW 21:25:10 26° W 21:25:21 26° W
Lacrosse 4 Rocket 3.1 21:29:56 24° NE 21:29:56 24° NE 21:31:42 10° NE
Cosmos 1864 Rocket 4.4 21:27:52 60° SE 21:28:45 68° E 21:34:59 10° NNE
Cosmos 540 Rocket 3.6 21:24:10 10° NNW 21:29:16 61° WSW 21:29:45 58° SW
Cosmos 2237 Rocket 4.3 21:26:30 10° N 21:29:59 16° NE 21:32:28 13° ENE
ERS-1 Rocket 4.0 21:36:12 32° WSW 21:37:13 35° W 21:41:49 10° NNW
Cosmos 2061 Rocket 3.9 21:37:27 59° SSW 21:38:43 87° W 21:44:57 10° N
Cosmos 2333 Rocket 2.8 21:33:28 10° NNW 21:39:02 46° ENE 21:39:44 44° ENE
Meteor 1-11 Rocket 3.6 21:42:34 70° SSW 21:43:15 83° W 21:49:05 10° N
Cosmos 2233 Rocket 4.1 21:45:59 59° ESE 21:46:16 59° E 21:52:29 10° NNE
Cosmos 841 Rocket 4.3 21:42:19 10° NW 21:47:13 41° WSW 21:47:34 40° WSW
Cosmos 1802 Rocket 4.3 21:45:24 43° SW 21:47:27 64° W 21:53:46 10° N
Cosmos 1066 Rocket 4.1 21:42:01 10° N 21:47:43 77° E 21:47:48 77° E
SL-4 R/B 3.7 21:53:21 10° NW 21:55:57 28° NNW 21:55:57 28° NNW
USA 234 3.2 21:58:07 61° SSW 21:58:43 64° SW 22:05:13 10° NW
Thor Agena Rocket 4.1 21:54:17 10° NNE 21:58:13 46° ENE 21:58:13 46° ENE
Cosmos 1816 Rocket 4.5 21:56:20 10° NNW 22:02:34 71° W 22:03:15 65° SW
Spot 4 4.2 22:03:39 60° NNE 22:03:39 60° NNE 22:07:45 10° N
ATLAS 3B R/B 2.9 22:01:44 21° SW 22:06:14 63° NW 22:12:51 10° NNE
Cosmos 1536 4.4 22:12:10 33° NW 22:12:10 33° NW 22:14:52 10° N
Meteor 1-23 Rocket 4.3 22:08:02 10° NNW 22:13:50 70° W 22:13:53 70° W
SL-16 R/B 4.1 22:11:43 10° WNW 22:15:27 18° W 22:16:06 18° WSW
Cosmos 2219 Rocket 2.2 22:11:19 10° NNW 22:16:46 76° NNE 22:16:46 76° NNE
Terra 3.7 22:18:59 21° W 22:18:59 21° W 22:22:38 10° NW
NOSS 0 Rocket 4.4 22:13:48 10° NNW 22:19:52 49° NE 22:20:35 47° ENE
Cosmos 2322 3.9 22:18:28 10° NNW 22:23:34 62° W 22:23:34 62° W
Cosmos 839 Rocket 4.4 22:23:45 65° S 22:25:00 81° ESE 22:34:03 10° NE
Lacrosse 5 4.3 22:24:10 10° W 22:24:47 11° W 22:24:47 11° W
Tsikada Rocket 4.4 22:21:36 10° NNW 22:27:43 52° W 22:28:15 50° WSW
MOS 1-B Rocket 4.2 22:23:52 10° N 22:29:21 57° WNW 22:29:54 55° W
Geosat 4.4 22:33:13 57° NW 22:33:13 57° NW 22:37:18 10° NNW
Meteor 2-11 Rocket 4.3 22:32:28 86° NNW 22:32:28 86° NNW 22:38:30 10° N
Cosmos 1486 Rocket 4.5 22:33:50 56° NW 22:33:50 56° NW 22:38:41 10° NNE
ALOS 2 3.8 22:35:05 41° N 22:35:05 41° N 22:38:02 10° N
Cosmos 2322 Rocket 4.2 22:30:47 10° WNW 22:34:03 16° W 22:34:18 16° W
Cosmos 489 Rocket 4.4 22:29:32 10° NNW 22:35:44 75° W 22:35:44 75° W
SL-16 R/B 4.1 22:39:52 10° N 22:44:09 21° NE 22:46:19 18° ENE
Cosmos 2360 Rocket 3.8 22:40:31 10° NW 22:44:24 24° W 22:44:24 24° W
Meteor 1-21 4.4 22:42:36 10° N 22:47:53 67° NE 22:47:53 67° NE
Cosmos 968 Rocket 4.4 22:58:02 41° WNW 22:58:02 41° WNW 23:02:45 10° N
Cosmos 2297 Rocket 3.3 23:02:01 35° ENE 23:02:01 35° ENE 23:05:46 10° NE
Meteor 2-9 Rocket 4.4 23:03:15 69° N 23:03:15 69° N 23:08:19 10° N
COSMOS 2428 3.4 22:59:25 10° NW 23:03:51 45° WNW 23:03:51 45° WNW
Lacrosse 4 Rocket 3.7 23:06:11 19° NW 23:06:33 20° NW 23:09:39 10° N
Cosmos 1980 3.9 23:01:03 10° NNW 23:06:08 66° NNE 23:06:08 66° NNE
Cosmos 2219 3.8 23:13:13 48° ENE 23:13:13 48° ENE 23:17:26 10° NNE
Cosmos 2237 Rocket 2.4 23:09:21 10° NNW 23:14:16 66° N 23:14:16 66° N
Cosmos 2333 Rocket 3.7 23:18:09 10° NW 23:21:43 27° W 23:21:43 27° W
Timation 2 Rocket 3.9 23:26:06 74° NW 23:26:06 74° NW 23:31:54 10° NNE
Meteor 1-12 Rocket 4.5 23:28:45 71° NE 23:28:45 71° NE 23:34:15 10° NNE
Cosmos 1634 Rocket 4.4 23:35:14 50° E 23:35:14 50° E 23:41:05 10° NNE
Cosmos 1464 Rocket 4.4 23:39:31 51° WNW 23:39:32 51° WNW 23:45:33 10° N
Helios 1B rocket 4.3 23:42:55 10° NNE 23:45:01 28° NE 23:45:01 28° NE
CZ-2D R/B 4.0 23:44:16 10° NE 23:48:16 20° E 23:48:17 20° E
Okean 2 Rocket 4.4 23:50:15 37° NNW 23:50:15 37° NNW 23:53:10 10° N
Cosmos 2227 Rocket 2.4 23:51:25 69° NNE 23:51:25 69° NNE 23:56:23 10° NNE
Nadezhda 4 Rocket 4.3 23:46:17 10° NNW 23:52:00 56° WNW 23:52:00 56° WNW
SJ 16-02 3.1 23:55:07 28° NE 23:55:07 28° NE 23:57:33 10° NNE
